GCOOP EGHQ-EGHQ

Flight info

Callsign GCOOP
Flight time 0h 4m
Altitude 2000
Route VFR CCTS
Aircraft C172

Departure

Time 2026-05-09 20:11
Airport Cornwall Airport Newquay (EGHQ)

Arrival

Time 2026-05-09 20:16
Airport Cornwall Airport Newquay (EGHQ)
Time Latitude Longitude Altitude Speed Heading
2026-05-09 20:11 50.41414 -5.01728 1629 ft 94 kts 133°
2026-05-09 20:11 50.40991 -5.00934 1649 ft 95 kts 135°
2026-05-09 20:12 50.40590 -5.00124 1671 ft 95 kts 131°
2026-05-09 20:12 50.40180 -4.99304 1691 ft 96 kts 134°
2026-05-09 20:12 50.39774 -4.98475 1711 ft 95 kts 129°
2026-05-09 20:12 50.39519 -4.97496 1643 ft 101 kts 97°
2026-05-09 20:13 50.39741 -4.96489 1570 ft 99 kts 44°
2026-05-09 20:13 50.40214 -4.95730 1500 ft 97 kts 37°
2026-05-09 20:13 50.40699 -4.95114 1431 ft 82 kts 30°
2026-05-09 20:13 50.41169 -4.94656 1406 ft 81 kts 21°
2026-05-09 20:14 50.41693 -4.94493 1348 ft 77 kts 334°
2026-05-09 20:14 50.42135 -4.94951 1167 ft 74 kts 314°
2026-05-09 20:14 50.42475 -4.95490 1058 ft 70 kts 305°
2026-05-09 20:14 50.42750 -4.96049 919 ft 61 kts 300°
2026-05-09 20:15 50.42996 -4.96648 740 ft 69 kts 297°
2026-05-09 20:15 50.43229 -4.97266 572 ft 63 kts 298°
2026-05-09 20:15 50.43454 -4.97867 455 ft 64 kts 296°
2026-05-09 20:15 50.43679 -4.98473 353 ft 64 kts 298°
2026-05-09 20:16 50.43877 -4.99002 334 ft 46 kts 298°
2026-05-09 20:16 50.44052 -4.99473 356 ft 66 kts 300°
2026-05-09 20:16 50.44305 -5.00115 542 ft 70 kts 298°
2026-05-09 20:16 50.44573 -5.00768 766 ft 73 kts 300°
2026-05-09 20:17 50.44830 -5.01400 1033 ft 68 kts 298°
2026-05-09 20:17 50.45084 -5.02040 1270 ft 69 kts 298°
2026-05-09 20:17 50.45334 -5.02750 1338 ft 75 kts 293°
2026-05-09 20:17 50.45547 -5.03499 1405 ft 75 kts 283°
2026-05-09 20:18 50.45481 -5.04320 1451 ft 78 kts 256°
2026-05-09 20:18 50.45358 -5.05095 1536 ft 74 kts 255°
2026-05-09 20:18 50.44927 -5.05629 1479 ft 89 kts 212°
2026-05-09 20:18 50.44293 -5.06018 1265 ft 103 kts 205°
2026-05-09 20:19 50.43625 -5.06367 1168 ft 99 kts 202°
2026-05-09 20:19 50.42966 -5.06516 1124 ft 103 kts 162°
2026-05-09 20:19 50.42461 -5.05700 1160 ft 93 kts 135°
2026-05-09 20:19 50.42077 -5.04896 1231 ft 94 kts 130°
2026-05-09 20:20 50.41693 -5.04071 1310 ft 93 kts 128°
2026-05-09 20:20 50.41349 -5.03187 1341 ft 96 kts 120°
2026-05-09 20:20 50.41070 -5.02193 1311 ft 104 kts 120°
2026-05-09 20:20 50.40768 -5.01172 1290 ft 100 kts 117°
2026-05-09 20:21 50.40486 -5.00182 1262 ft 99 kts 116°
2026-05-09 20:21 50.40209 -4.99182 1221 ft 100 kts 116°
2026-05-09 20:21 50.39951 -4.98159 1251 ft 102 kts 113°
2026-05-09 20:21 50.39695 -4.97106 1266 ft 104 kts 113°
2026-05-09 20:22 50.39483 -4.96067 1355 ft 98 kts 107°
2026-05-09 20:22 50.39519 -4.94999 1312 ft 106 kts 55°
2026-05-09 20:22 50.40092 -4.94343 1300 ft 99 kts 21°
2026-05-09 20:22 50.40700 -4.93881 1346 ft 94 kts 17°
2026-05-09 20:23 50.41282 -4.93609 1348 ft 80 kts 355°
2026-05-09 20:23 50.41753 -4.93972 1236 ft 75 kts 313°
2026-05-09 20:23 50.42129 -4.94554 1121 ft 78 kts 307°
2026-05-09 20:23 50.42441 -4.95229 965 ft 70 kts 297°
2026-05-09 20:24 50.42695 -4.95892 808 ft 72 kts 299°
2026-05-09 20:24 50.42946 -4.96549 670 ft 68 kts 297°
2026-05-09 20:24 50.43196 -4.97197 550 ft 67 kts 296°
2026-05-09 20:24 50.43437 -4.97830 434 ft 71 kts 299°
2026-05-09 20:25 50.43691 -4.98507 343 ft 72 kts 298°
2026-05-09 20:25 50.43912 -4.99086 336 ft 50 kts 298°
2026-05-09 20:25 50.44061 -4.99515 328 ft 56 kts 300°
2026-05-09 20:25 50.44338 -5.00211 402 ft 83 kts 300°
2026-05-09 20:26 50.44621 -5.00887 739 ft 67 kts 300°
2026-05-09 20:26 50.44889 -5.01520 940 ft 75 kts 298°
2026-05-09 20:26 50.45178 -5.02243 1100 ft 80 kts 299°
2026-05-09 20:26 50.45470 -5.02992 1290 ft 79 kts 297°
2026-05-09 20:27 50.45747 -5.03775 1427 ft 83 kts 294°
2026-05-09 20:27 50.45760 -5.04599 1666 ft 80 kts 244°
2026-05-09 20:27 50.45338 -5.05263 1627 ft 90 kts 218°
2026-05-09 20:27 50.44789 -5.05664 1581 ft 86 kts 210°
2026-05-09 20:28 50.44219 -5.05970 1519 ft 87 kts 200°
2026-05-09 20:28 50.43597 -5.05815 1431 ft 101 kts 153°
2026-05-09 20:28 50.43188 -5.04894 1408 ft 104 kts 118°
2026-05-09 20:29 50.42548 -5.02892 1408 ft 103 kts 121°
2026-05-09 20:29 50.42127 -5.02005 1411 ft 102 kts 126°
2026-05-09 20:29 50.41773 -5.01054 1447 ft 99 kts 121°
2026-05-09 20:29 50.41477 -5.00053 1451 ft 102 kts 114°
2026-05-09 20:30 50.41258 -4.99021 1466 ft 102 kts 106°
2026-05-09 20:30 50.41034 -4.97979 1469 ft 100 kts 117°
2026-05-09 20:30 50.40771 -4.96959 1470 ft 101 kts 114°
2026-05-09 20:30 50.40523 -4.95903 1470 ft 104 kts 111°
2026-05-09 20:31 50.40304 -4.94827 1436 ft 107 kts 113°
2026-05-09 20:31 50.40132 -4.93729 1442 ft 104 kts 84°
2026-05-09 20:31 50.40501 -4.92823 1430 ft 100 kts 24°
2026-05-09 20:31 50.41114 -4.92490 1441 ft 89 kts 345°
2026-05-09 20:32 50.41566 -4.93047 1347 ft 83 kts 302°
2026-05-09 20:32 50.41911 -4.93799 1221 ft 85 kts 301°
2026-05-09 20:32 50.42193 -4.94511 1088 ft 75 kts 296°
2026-05-09 20:32 50.42456 -4.95227 938 ft 71 kts 297°
2026-05-09 20:33 50.42696 -4.95866 786 ft 65 kts 295°
2026-05-09 20:33 50.42931 -4.96497 641 ft 69 kts 298°
2026-05-09 20:33 50.43187 -4.97165 528 ft 69 kts 297°
2026-05-09 20:33 50.43424 -4.97795 448 ft 66 kts 297°
2026-05-09 20:34 50.43656 -4.98411 353 ft 67 kts 298°
2026-05-09 20:34 50.43855 -4.98952 330 ft 43 kts 300°
2026-05-09 20:34 50.44000 -4.99335 330 ft 40 kts 307°
2026-05-09 20:34 50.44104 -4.99506 329 ft 15 kts 24°
2026-05-09 20:35 50.44199 -4.99485 330 ft 12 kts
2026-05-09 20:35 50.44238 -4.99481 329 ft 0 kts 357°
2026-05-09 20:36 50.44265 -4.99498 331 ft 13 kts 313°
2026-05-09 20:36 50.44329 -4.99665 333 ft 17 kts 300°
2026-05-09 20:36 50.44382 -4.99793 333 ft 8 kts 353°
2026-05-09 20:37 50.44407 -4.99726 335 ft 10 kts 68°
2026-05-09 20:37 50.44439 -4.99607 337 ft 10 kts 38°
2026-05-09 20:37 50.44454 -4.99686 338 ft 5 kts 221°
2026-05-09 20:37 50.44452 -4.99688 335 ft 0 kts 191°